Tillbaka till svenska Fidonet
English   Information   Debug  
FILM   0/18
FNEWS_PUBLISH   4881
FN_SYSOP   42085
FN_SYSOP_OLD1   71952
FTP_FIDO   0/2
FTSC_PUBLIC   0/13948
FUNNY   0/4886
GENEALOGY.EUR   0/71
GET_INFO   105
GOLDED   0/408
HAM   0/16617
HOLYSMOKE   0/6791
HOT_SITES   0/1
HTMLEDIT   0/71
HUB203   466
HUB_100   264
HUB_400   39
HUMOR   0/29
IC   0/2851
INTERNET   0/424
INTERUSER   0/3
IP_CONNECT   719
JAMNNTPD   0/233
JAMTLAND   0/47
KATTY_KORNER   0/41
LAN   0/16
LINUX-USER   0/19
LINUXHELP   0/1155
LINUX   0/22287
LINUX_BBS   0/957
mail   18.68
mail_fore_ok   249
MENSA   0/341
MODERATOR   0/102
MONTE   0/992
MOSCOW_OKLAHOMA   0/1245
MUFFIN   0/783
MUSIC   0/321
N203_STAT   938
N203_SYSCHAT   313
NET203   321
NET204   69
NET_DEV   0/10
NORD.ADMIN   0/101
NORD.CHAT   0/2572
NORD.FIDONET   189
NORD.HARDWARE   0/28
NORD.KULTUR   0/114
NORD.PROG   0/32
NORD.SOFTWARE   0/88
NORD.TEKNIK   0/58
NORD   0/453
OCCULT_CHAT   0/93
OS2BBS   0/787
OS2DOSBBS   0/580
OS2HW   0/42
OS2INET   0/37
OS2LAN   0/134
OS2PROG   0/36
OS2REXX   0/113
OS2USER-L   207
OS2   0/4829
OSDEBATE   0/18996
PASCAL   0/490
PERL   0/457
PHP   0/45
POINTS   0/405
POLITICS   0/29554
POL_INC   14698/14731
PSION   103
R20_ADMIN   1133
R20_AMATORRADIO   0/2
R20_BEST_OF_FIDONET   16
R20_CHAT   0/896
R20_DEPP   0/3
R20_DEV   400
R20_ECHO2   1788
R20_ECHOPRES   0/35
R20_ESTAT   0/719
R20_FIDONETPROG...
...RAM.MYPOINT
  0/2
R20_FIDONETPROGRAM   0/22
R20_FIDONET   0/248
R20_FILEFIND   0/24
R20_FILEFOUND   0/22
R20_HIFI   0/3
R20_INFO2   3680
R20_INTERNET   0/12940
R20_INTRESSE   0/60
R20_INTR_KOM   0/99
R20_KANDIDAT.CHAT   42
R20_KANDIDAT   28
R20_KOM_DEV   112
R20_KONTROLL   0/13360
R20_KORSET   0/18
R20_LOKALTRAFIK   0/24
R20_MODERATOR   0/1852
R20_NC   76
R20_NET200   245
R20_NETWORK.OTH...
...ERNETS
  0/13
R20_OPERATIVSYS...
...TEM.LINUX
  0/44
R20_PROGRAMVAROR   0/1
R20_REC2NEC   534
R20_SFOSM   0/341
R20_SF   0/108
R20_SPRAK.ENGLISH   0/1
R20_SQUISH   107
R20_TEST   2
R20_WORST_OF_FIDONET   20
RAR   0/9
RA_MULTI   106
RA_UTIL   0/162
REGCON.EUR   0/2067
REGCON   0/13
SCIENCE   0/1206
SF   0/239
SHAREWARE_SUPPORT   0/5146
SHAREWRE   0/14
SIMPSONS   0/169
STATS_OLD1   0/2539.065
STATS_OLD2   0/2530
STATS_OLD3   0/2395.095
STATS_OLD4   0/1692.25
SURVIVOR   0/495
SYSOPS_CORNER   0/3
SYSOP   0/84
TAGLINES   0/112
TEAMOS2   0/4530
TECH   0/2617
TEST.444   0/105
TRAPDOOR   0/19
TREK   0/755
TUB   0/290
UFO   0/40
UNIX   0/1316
USA_EURLINK   0/102
USR_MODEMS   0/1
VATICAN   0/2740
VIETNAM_VETS   0/14
VIRUS   0/378
VIRUS_INFO   0/201
VISUAL_BASIC   0/473
WHITEHOUSE   0/5187
WIN2000   0/101
WIN32   0/30
WIN95   0/4291
WIN95_OLD1   0/70272
WINDOWS   0/1517
WWB_SYSOP   0/419
WWB_TECH   0/810
ZCC-PUBLIC   0/1
ZEC   4

 
4DOS   0/134
ABORTION   0/7
ALASKA_CHAT   0/506
ALLFIX_FILE   0/1313
ALLFIX_FILE_OLD1   0/7997
ALT_DOS   0/152
AMATEUR_RADIO   0/1039
AMIGASALE   0/14
AMIGA   0/331
AMIGA_INT   0/1
AMIGA_PROG   0/20
AMIGA_SYSOP   0/26
ANIME   0/15
ARGUS   0/924
ASCII_ART   0/340
ASIAN_LINK   0/651
ASTRONOMY   0/417
AUDIO   0/92
AUTOMOBILE_RACING   0/105
BABYLON5   0/17862
BAG   135
BATPOWER   0/361
BBBS.ENGLISH   0/382
BBSLAW   0/109
BBS_ADS   0/5290
BBS_INTERNET   0/507
BIBLE   0/3563
BINKD   0/1119
BINKLEY   0/215
BLUEWAVE   0/2173
CABLE_MODEMS   0/25
CBM   0/46
CDRECORD   0/66
CDROM   0/20
CLASSIC_COMPUTER   0/378
COMICS   0/15
CONSPRCY   0/899
COOKING   41016
COOKING_OLD1   0/24719
COOKING_OLD2   0/40862
COOKING_OLD3   0/37489
COOKING_OLD4   0/35496
COOKING_OLD5   9370
C_ECHO   0/189
C_PLUSPLUS   0/31
DIRTY_DOZEN   0/201
DOORGAMES   0/2253
DOS_INTERNET   0/196
duplikat   6102
ECHOLIST   0/18295
EC_SUPPORT   0/318
ELECTRONICS   0/359
ELEKTRONIK.GER   1534
ENET.LINGUISTIC   0/13
ENET.POLITICS   0/4
ENET.SOFT   0/11701
ENET.SYSOP   34252
ENET.TALKS   0/32
ENGLISH_TUTOR   0/2000
EVOLUTION   0/1335
FDECHO   0/217
FDN_ANNOUNCE   0/7068
FIDONEWS   24977
FIDONEWS_OLD1   0/49742
FIDONEWS_OLD2   0/35949
FIDONEWS_OLD3   0/30874
FIDONEWS_OLD4   0/37224
FIDO_SYSOP   12920
FIDO_UTIL   0/180
FILEFIND   0/209
FILEGATE   0/212
Möte HAM, 16617 texter
 lista första sista föregående nästa
Text 635, 777 rader
Skriven 2005-10-13 23:01:17 av Amsat List (1:323/120.0)
Ärende: 
========
SB KEPS @ AMSAT  $ORB05286.O
Orbital Elements  05286.OSCAR

HR AMSAT ORBITAL ELEMENTS FOR OSCAR SATELLITES
FROM WA5QGD FORT WORTH,TX October 13, 2005
Send SUBSCRIBE KEPS/UNSUBSCRIBE KEPS to majordomo@amsat.org only
BID: ORB05286.O
TO ALL RADIO AMATEURS BT

Satellite: AO-07
Catalog number: 07530
Epoch time:      05285.94626920
Element set:    0494
Inclination:      101.6147 deg
RA of node:       329.6840 deg
Eccentricity:    0.0012090
Arg of perigee:   006.8270 deg
Mean anomaly:     353.2965 deg
Mean motion:   12.53570792 rev/day
Decay rate:       -2.8e-07 rev/day^2
Epoch rev:           41440
Checksum:              293

Satellite: AO-10
Catalog number: 14129
Epoch time:      05285.61495706
Element set:     223
Inclination:      027.4605 deg
RA of node:       008.8534 deg
Eccentricity:    0.6033810
Arg of perigee:   228.6151 deg
Mean anomaly:     061.1191 deg
Mean motion:   02.05867473 rev/day
Decay rate:      -1.67e-06 rev/day^2
Epoch rev:           16795
Checksum:              295

Satellite: UO-11
Catalog number: 14781
Epoch time:      05285.83663025
Element set:    0899
Inclination:      098.2088 deg
RA of node:       285.8261 deg
Eccentricity:    0.0008682
Arg of perigee:   348.4396 deg
Mean anomaly:     011.6620 deg
Mean motion:   14.79321328 rev/day
Decay rate:       1.99e-06 rev/day^2
Epoch rev:           15919
Checksum:              340

Satellite: RS-10/11
Catalog number: 18129
Epoch time:      05285.73582248
Element set:     810
Inclination:      082.9261 deg
RA of node:       151.2106 deg
Eccentricity:    0.0013223
Arg of perigee:   062.7287 deg
Mean anomaly:     297.5212 deg
Mean motion:   13.72765312 rev/day
Decay rate:        2.9e-07 rev/day^2
Epoch rev:           91720
Checksum:              285

Satellite: FO-20
Catalog number: 20480
Epoch time:      05286.49476896
Element set:      36
Inclination:      099.0363 deg
RA of node:       078.2849 deg
Eccentricity:    0.0540210
Arg of perigee:   331.5284 deg
Mean anomaly:     025.7241 deg
Mean motion:   12.83347933 rev/day
Decay rate:       -8.8e-07 rev/day^2
Epoch rev:           73467
Checksum:              324

Satellite: RS-12/13
Catalog number: 21089
Epoch time:      05285.73685503
Element set:    0041
Inclination:      082.9253 deg
RA of node:       183.6597 deg
Eccentricity:    0.0030394
Arg of perigee:   109.9266 deg
Mean anomaly:     250.5169 deg
Mean motion:   13.74455591 rev/day
Decay rate:        4.0e-07 rev/day^2
Epoch rev:           73664
Checksum:              322

Satellite: RS-15
Catalog number: 23439
Epoch time:      05285.92093399
Element set:    0901
Inclination:      064.8157 deg
RA of node:       277.1402 deg
Eccentricity:    0.0166637
Arg of perigee:   295.8491 deg
Mean anomaly:     062.5331 deg
Mean motion:   11.27551549 rev/day
Decay rate:       -3.9e-07 rev/day^2
Epoch rev:           44466
Checksum:              330

Satellite: FO-29
Catalog number: 24278
Epoch time:      05285.72107430
Element set:      67
Inclination:      098.5306 deg
RA of node:       319.3469 deg
Eccentricity:    0.0349908
Arg of perigee:   231.6248 deg
Mean anomaly:     125.2974 deg
Mean motion:   13.52915443 rev/day
Decay rate:       -1.6e-07 rev/day^2
Epoch rev:           45208
Checksum:              321

Satellite: SO-33
Catalog number: 25509
Epoch time:      05285.91029698
Element set:    0488
Inclination:      031.4270 deg
RA of node:       087.1513 deg
Eccentricity:    0.0355099
Arg of perigee:   114.9935 deg
Mean anomaly:     248.7997 deg
Mean motion:   14.28040292 rev/day
Decay rate:       1.70e-06 rev/day^2
Epoch rev:           36366
Checksum:              336

Satellite: AO-40
Catalog number: 26609
Epoch time:      05283.57970441
Element set:     614
Inclination:      007.5167 deg
RA of node:       276.0507 deg
Eccentricity:    0.7922548
Arg of perigee:   090.6649 deg
Mean anomaly:     350.0363 deg
Mean motion:   01.25583811 rev/day
Decay rate:      -3.96e-06 rev/day^2
Epoch rev:            2271
Checksum:              312

Satellite: VO-52
Catalog number: 28650
Epoch time:      05285.78068771
Element set:    0152
Inclination:      097.8986 deg
RA of node:       357.8676 deg
Eccentricity:    0.0028573
Arg of perigee:   085.6645 deg
Mean anomaly:     274.7835 deg
Mean motion:   14.80958924 rev/day
Decay rate:       6.79e-06 rev/day^2
Epoch rev:           02376
Checksum:              384

/EX
SB KEPS @ AMSAT  $ORB05286.D
Orbital Elements  05286.MICROS

HR AMSAT ORBITAL ELEMENTS FOR THE MICROSATS
FROM WA5QGD FORT WORTH,TX October 13, 2005
Send SUBSCRIBE KEPS/UNSUBSCRIBE KEPS to majordomo@amsat.org only
BID: ORB05286.D
TO ALL RADIO AMATEURS BT

Satellite: UO-14
Catalog number: 20437
Epoch time:      05285.62708947
Element set:    0894
Inclination:      098.1982 deg
RA of node:       288.7887 deg
Eccentricity:    0.0009776
Arg of perigee:   202.2937 deg
Mean anomaly:     157.7823 deg
Mean motion:   14.31428958 rev/day
Decay rate:        1.5e-07 rev/day^2
Epoch rev:           82083
Checksum:              360

Satellite: AO-16
Catalog number: 20439
Epoch time:      05285.60993325
Element set:     578
Inclination:      098.2010 deg
RA of node:       304.3637 deg
Eccentricity:    0.0010154
Arg of perigee:   209.8001 deg
Mean anomaly:     150.2604 deg
Mean motion:   14.31694632 rev/day
Decay rate:        3.6e-07 rev/day^2
Epoch rev:           82089
Checksum:              283

Satellite: WO-18
Catalog number: 20441
Epoch time:      05285.81829670
Element set:    0779
Inclination:      098.2098 deg
RA of node:       309.0631 deg
Eccentricity:    0.0010971
Arg of perigee:   208.3440 deg
Mean anomaly:     151.7152 deg
Mean motion:   14.31766553 rev/day
Decay rate:        2.0e-07 rev/day^2
Epoch rev:           82098
Checksum:              304

